Date,Snake,Point,Adult,Male,Forage,Ecdysis,Digest,Gestate,meanT,sol_rad,stnd_age,slope,strm_dist,beers,rf_tba,rf_tde,chm,ove,mid,und,ndms1,ndms2,ndms3
5/23/2017,Arnold,ARN170523,1,1,0,0,0,0,22.61203692,39961.83122,73.58677686,5.812349494,242.448879,1.318737283,29.27566243,459.0417541,14.14063174,0.01947707,106.0501774,150.4000591,-0.075318142,-0.089235052,-0.011897847
5/24/2017,Arnold,ARN170524,1,1,0,0,0,0,22.54282277,40773.54145,64,7.25683398,213.7898905,0.855306204,26.59839165,435.2492514,13.65068301,0.050658915,103.4083584,150.3173148,-0.147779275,-0.096708093,0.031200006
5/26/2017,Arnold,ARN170526,1,1,0,0,0,0,22.44396536,40402.70684,64,8.792273243,223.2053139,1.147655983,27.10899909,434.4441808,15.44547722,1.172074047,105.8173305,149.5103891,-0.078988059,-0.060794299,0.037662937
5/29/2017,Arnold,ARN170529,1,1,0,0,0,0,22.41013186,40818.95132,64,10.54125072,243.7220987,0.571190228,28.20976194,453.2271774,19.44527736,3.440756826,115.4752109,150.3336387,-0.115427615,-0.014038426,0.05614345
5/31/2017,Arnold,ARN170531,1,1,1,0,0,0,22.56819815,39261.29319,151,13.18320366,243.9616852,1.6440385,22.79067095,441.2465286,20.11365093,16.10303977,109.75977,157.2772692,-0.243732419,0.105562056,-0.077551264
6/2/2017,Arnold,ARN170602,1,1,0,0,0,0,21.93059573,34898.35849,149.0826446,23.07265208,149.7067543,1.942583468,22.65974306,451.721974,16.06421971,0.660226478,101.5438112,160.354339,0.182682968,0.124651242,0.097068202
6/5/2017,Arnold,ARN170605,1,1,1,0,0,0,22.3057186,37668.79194,151,20.32061011,318.5748488,0.941624226,26.59230209,416.2304748,24.8960885,48.62175855,62.49081749,153.9360314,-0.057216425,0.11319738,-0.008310029
6/7/2017,Arnold,ARN170607,1,1,0,0,0,0,22.30701532,37737.21371,151,19.72005759,319.3642389,1.106676003,26.43414907,411.9066177,25.2970646,51.64708746,61.16042117,151.4666239,-0.02337878,0.118520415,-0.007995606
6/9/2017,Arnold,ARN170607,1,1,0,0,0,0,22.30701532,37737.21371,151,19.72005759,319.3642389,1.106676003,26.43414907,411.9066177,25.2970646,51.64708746,61.16042117,151.4666239,-0.02337878,0.118520415,-0.007995606
6/16/2017,Arnold,ARN170616,1,1,0,0,0,0,22.9007958,39450.31043,151,12.34246992,224.9196616,1.058058091,22.91710743,474.8037177,16.90249424,5.537433545,119.0685232,187.4100854,-0.195870724,-0.084976398,-0.076226927
6/19/2017,Arnold,ARN170619,1,1,0,0,0,0,21.48409054,35134.04093,36.91735537,23.73492938,50.11906569,1.985357392,23.52525016,541.3998274,16.76719804,0.131844718,123.0471854,158.1685651,0.235501963,0.063687722,0.121798644
6/23/2017,Arnold,ARN170623,1,1,0,0,0,0,21.61332017,34305.85458,79.09917355,24.41526344,82.44088909,1.889588347,21.51795855,540.3323347,16.35803662,0.025196782,121.9382046,159.4901163,0.24620554,0.050977077,0.088116388
6/26/2017,Arnold,ARN170626,1,1,0,0,0,0,21.82420307,34026.72254,125.1157025,25.52687241,119.937169,1.881137161,21.06101961,480.1172387,15.70735209,0.040730054,115.2972643,160.0521407,0.244553831,0.087135642,0.09576051
6/28/2017,Arnold,ARN170628,1,1,0,0,0,0,21.61628447,34207.23865,89.6446281,24.73901476,88.72497174,1.852045957,20.93160175,533.2484749,16.23314433,0.025119262,121.0203115,159.5909117,0.254767992,0.058595877,0.074022511
6/30/2017,Arnold,ARN170630,1,1,0,0,0,0,22.72286686,38259.84406,151,14.54540479,291.4241739,1.878668567,20.51936483,351.6189755,23.09545241,30.69531468,111.5169437,174.2108655,0.115053403,0.006034753,0.018045532
7/4/2017,Arnold,ARN170704,1,1,0,1,1,0,22.75100281,35934.06273,151,20.87734016,266.3247891,1.942298549,26.89834804,437.2275628,27.63827996,64.18700433,92.20787906,172.3082041,0.043970651,0.188249959,0.024076829
7/6/2017,Arnold,ARN170704,1,1,0,1,0,0,22.75100281,35934.06273,151,20.87734016,266.3247891,1.942298549,26.89834804,437.2275628,27.63827996,64.18700433,92.20787906,172.3082041,0.043970651,0.188249959,0.024076829
7/9/2017,Arnold,ARN170704,1,1,0,1,0,0,22.75100281,35934.06273,151,20.87734016,266.3247891,1.942298549,26.89834804,437.2275628,27.63827996,64.18700433,92.20787906,172.3082041,0.043970651,0.188249959,0.024076829
7/10/2017,Arnold,ARN170704,1,1,0,1,0,0,22.75100281,35934.06273,151,20.87734016,266.3247891,1.942298549,26.89834804,437.2275628,27.63827996,64.18700433,92.20787906,172.3082041,0.043970651,0.188249959,0.024076829
7/12/2017,Arnold,ARN170704,1,1,0,1,0,0,22.75100281,35934.06273,151,20.87734016,266.3247891,1.942298549,26.89834804,437.2275628,27.63827996,64.18700433,92.20787906,172.3082041,0.043970651,0.188249959,0.024076829
7/14/2017,Arnold,ARN170704,1,1,0,1,0,0,22.75100281,35934.06273,151,20.87734016,266.3247891,1.942298549,26.89834804,437.2275628,27.63827996,64.18700433,92.20787906,172.3082041,0.043970651,0.188249959,0.024076829
7/17/2017,Arnold,ARN170704,1,1,0,1,0,0,22.75100281,35934.06273,151,20.87734016,266.3247891,1.942298549,26.89834804,437.2275628,27.63827996,64.18700433,92.20787906,172.3082041,0.043970651,0.188249959,0.024076829
7/21/2017,Arnold,ARN170721,1,1,0,0,0,0,22.67831618,40398.09336,151,10.38063825,286.0563536,0.409330952,22.85441291,410.4141462,18.40279181,1.628674382,132.705592,173.8834419,-0.254263591,-0.128062158,0.018220946
7/24/2017,Arnold,ARN170721,1,1,0,0,0,0,22.67831618,40398.09336,151,10.38063825,286.0563536,0.409330952,22.85441291,410.4141462,18.40279181,1.628674382,132.705592,173.8834419,-0.254263591,-0.128062158,0.018220946
7/26/2017,Arnold,ARN170721,1,1,0,0,0,0,22.67831618,40398.09336,151,10.38063825,286.0563536,0.409330952,22.85441291,410.4141462,18.40279181,1.628674382,132.705592,173.8834419,-0.254263591,-0.128062158,0.018220946
7/28/2017,Arnold,ARN170721,1,1,0,0,0,0,22.67831618,40398.09336,151,10.38063825,286.0563536,0.409330952,22.85441291,410.4141462,18.40279181,1.628674382,132.705592,173.8834419,-0.254263591,-0.128062158,0.018220946
7/31/2017,Arnold,ARN170721,1,1,0,0,0,0,22.67831618,40398.09336,151,10.38063825,286.0563536,0.409330952,22.85441291,410.4141462,18.40279181,1.628674382,132.705592,173.8834419,-0.254263591,-0.128062158,0.018220946
8/2/2017,Arnold,ARN170802,1,1,0,0,0,0,22.84538936,40444.67856,149.4958678,8.800272615,275.6452601,0.847918521,25.283561,457.8112508,17.35994387,3.147635498,133.8589508,173.3666254,-0.281603002,-0.105327833,0.000474255
8/4/2017,Arnold,ARN170804,1,1,0,0,0,0,22.43611022,38666.53997,135.2066116,19.2608704,210.2955692,0.26866028,24.14896166,439.7575502,22.04943475,30.18290617,93.50110551,163.0724555,-0.308369775,0.01544079,0.021368786
8/16/2017,Arnold,ARN170804,1,1,0,0,0,0,22.43611022,38666.53997,135.2066116,19.2608704,210.2955692,0.26866028,24.14896166,439.7575502,22.04943475,30.18290617,93.50110551,163.0724555,-0.308369775,0.01544079,0.021368786
8/21/2017,Arnold,ARN170821,1,1,0,0,0,0,22.40418251,38685.62874,130.6942149,18.95524403,201.4968786,0.319705607,24.56887876,427.7586758,22.32035282,32.38635893,90.95786348,162.1293079,-0.272157446,0.043469683,0.022466821
8/23/2017,Arnold,ARN170821,1,1,0,0,0,0,22.40418251,38685.62874,130.6942149,18.95524403,201.4968786,0.319705607,24.56887876,427.7586758,22.32035282,32.38635893,90.95786348,162.1293079,-0.272157446,0.043469683,0.022466821
8/25/2017,Arnold,ARN170821,1,1,0,0,0,0,22.40418251,38685.62874,130.6942149,18.95524403,201.4968786,0.319705607,24.56887876,427.7586758,22.32035282,32.38635893,90.95786348,162.1293079,-0.272157446,0.043469683,0.022466821
8/28/2017,Arnold,ARN170804,1,1,0,0,0,0,22.43611022,38666.53997,135.2066116,19.2608704,210.2955692,0.26866028,24.14896166,439.7575502,22.04943475,30.18290617,93.50110551,163.0724555,-0.308369775,0.01544079,0.021368786
8/30/2017,Arnold,ARN170804,1,1,0,0,0,0,22.43611022,38666.53997,135.2066116,19.2608704,210.2955692,0.26866028,24.14896166,439.7575502,22.04943475,30.18290617,93.50110551,163.0724555,-0.308369775,0.01544079,0.021368786
9/4/2017,Arnold,ARN170904,1,1,0,0,0,0,22.47605552,39570.36144,113.3966942,17.84931472,217.6317256,0.294300947,24.05367035,462.6688205,21.28065856,18.60473588,106.9881919,164.9715876,-0.40949543,-0.05138897,0.005955091
9/6/2017,Arnold,ARN170904,1,1,1,0,0,0,22.47605552,39570.36144,113.3966942,17.84931472,217.6317256,0.294300947,24.05367035,462.6688205,21.28065856,18.60473588,106.9881919,164.9715876,-0.40949543,-0.05138897,0.005955091
9/8/2017,Arnold,ARN170904,1,1,0,0,0,0,22.47605552,39570.36144,113.3966942,17.84931472,217.6317256,0.294300947,24.05367035,462.6688205,21.28065856,18.60473588,106.9881919,164.9715876,-0.40949543,-0.05138897,0.005955091
9/12/2017,Arnold,ARN170904,1,1,0,0,0,0,22.47605552,39570.36144,113.3966942,17.84931472,217.6317256,0.294300947,24.05367035,462.6688205,21.28065856,18.60473588,106.9881919,164.9715876,-0.40949543,-0.05138897,0.005955091
9/14/2017,Arnold,ARN170904,1,1,0,0,0,0,22.47605552,39570.36144,113.3966942,17.84931472,217.6317256,0.294300947,24.05367035,462.6688205,21.28065856,18.60473588,106.9881919,164.9715876,-0.40949543,-0.05138897,0.005955091
9/16/2017,Arnold,ARN170904,1,1,0,0,0,0,22.47605552,39570.36144,113.3966942,17.84931472,217.6317256,0.294300947,24.05367035,462.6688205,21.28065856,18.60473588,106.9881919,164.9715876,-0.40949543,-0.05138897,0.005955091
9/18/2017,Arnold,ARN170904,1,1,0,0,0,0,22.47605552,39570.36144,113.3966942,17.84931472,217.6317256,0.294300947,24.05367035,462.6688205,21.28065856,18.60473588,106.9881919,164.9715876,-0.40949543,-0.05138897,0.005955091
5/9/2018,Arnold,ARN180509,1,1,0,0,0,0,22.33166684,39684.29,102.8677686,17.01267105,188.1589594,0.32835821,25.27491847,435.1426957,20.37718936,22.90932894,103.6243932,163.1480835,-0.357069506,-0.026847373,-0.003957147
5/11/2018,Arnold,ARN180509,1,1,0,0,0,0,22.33166684,39684.29,102.8677686,17.01267105,188.1589594,0.32835821,25.27491847,435.1426957,20.37718936,22.90932894,103.6243932,163.1480835,-0.357069506,-0.026847373,-0.003957147
5/14/2018,Arnold,ARN180514,1,1,0,0,0,0,22.31119074,37007.64288,151,16.53514218,206.2948103,1.936932901,23.67798335,463.9789154,14.6698987,8.504372467,86.02718725,163.1681374,0.015753442,0.118737745,3.72E-05
5/16/2018,Arnold,ARN180516,1,1,1,0,0,0,22.28954386,36389.63204,151,18.92094632,220.7580159,1.974343126,24.30848976,453.2341939,20.7794239,32.44363306,79.41592287,158.8176571,0.004191582,0.17714406,0.034222034
5/18/2018,Arnold,ARN180518,1,1,1,0,0,0,22.12073812,38416.53567,151,21.43766435,218.0318274,0.849640707,23.53607963,429.4848605,20.85738863,15.37526888,91.35261428,163.6442399,-0.134427853,0.056174369,-0.067394709
5/21/2018,Arnold,ARN180521,1,1,1,0,0,0,22.32387142,37928.69835,151,20.87265667,123.8779373,1.544866702,26.59691029,376.6187853,23.09267918,33.89025261,97.961379,155.6908291,-0.199771357,0.198384431,-0.059510403
5/25/2018,Arnold,ARN180525,1,1,1,0,0,0,22.01403214,40110.54513,64,14.75605696,138.81897,0.515675817,27.85348388,417.9823175,23.3646315,26.96829206,98.74190855,150.5896702,-0.119890123,-0.012795012,-0.022625938
5/29/2018,Arnold,ARN180529,1,1,0,0,0,0,21.78454401,39676.48704,73.95041322,16.54998806,145.5621301,0.524840323,26.66681632,440.4029322,28.75813436,62.8625533,77.8012928,136.1201487,-0.06708924,0.076671144,-0.016178144
6/1/2018,Arnold,ARN180601,1,1,0,0,0,0,22.40306487,34990.56018,107,22.58162921,211.3631765,1.39615247,29.2732266,498.2313679,22.89914455,31.5144489,87.94020695,143.7634178,-0.078492419,0.078112966,0.064400491
6/4/2018,Arnold,ARN180604,1,1,0,0,0,0,22.36464261,38309.3397,73.66115702,12.73066037,236.4288447,1.324255063,31.49683494,568.2734594,12.48408694,8.58783786,76.29285075,114.4505005,0.02153311,-0.049648955,0.07755837
6/7/2018,Arnold,ARN180604,1,1,0,1,0,0,22.36464261,38309.3397,73.66115702,12.73066037,236.4288447,1.324255063,31.49683494,568.2734594,12.48408694,8.58783786,76.29285075,114.4505005,0.02153311,-0.049648955,0.07755837
6/11/2018,Arnold,ARN180604,1,1,0,1,0,0,22.36464261,38309.3397,73.66115702,12.73066037,236.4288447,1.324255063,31.49683494,568.2734594,12.48408694,8.58783786,76.29285075,114.4505005,0.02153311,-0.049648955,0.07755837
6/13/2018,Arnold,ARN180604,1,1,0,1,0,0,22.36464261,38309.3397,73.66115702,12.73066037,236.4288447,1.324255063,31.49683494,568.2734594,12.48408694,8.58783786,76.29285075,114.4505005,0.02153311,-0.049648955,0.07755837
6/15/2018,Arnold,ARN180615,1,1,0,0,0,0,22.54395676,39268.12758,63.66115702,10.19064472,259.6970062,1.464847837,21.51856747,419.0089754,11.82351787,5.444616051,91.59772744,142.8457131,0.146088756,-0.095508101,0.027637475
6/18/2018,Arnold,ARN180618,1,1,0,0,0,0,22.06081904,35481.71471,99.53719008,21.8703274,123.6451834,1.774350783,28.35744643,386.1869893,23.83860877,65.14232259,46.73391635,149.9640268,0.122219346,0.262687144,0.061825851
6/20/2018,Arnold,ARN180620,1,1,0,0,0,0,21.90099961,37683.80307,107.4297521,20.19390752,45.98534765,0.915535074,24.35337677,389.930368,26.16169019,54.99436776,79.60317255,164.8122749,-0.048736061,0.173471438,-0.107003702
6/22/2018,Arnold,ARN180622,1,1,0,0,0,0,21.93172542,35436.0502,107,23.9763004,36.37696583,1.305503004,25.47775607,382.7897546,29.81785361,73.08257905,66.45950406,159.6389337,0.090855679,0.322713709,-0.076496793
6/25/2018,Arnold,ARN180625,1,1,1,0,0,0,21.74199282,35667.98704,90.9338843,23.68798183,15.94784849,1.561655334,23.3949008,416.5342528,27.36166892,67.41361501,78.79313975,154.6418623,0.067843966,0.206624202,-0.136704836
6/29/2018,Arnold,ARN180629,1,1,0,0,0,0,22.39485845,37843.18388,98.63636364,16.09059362,254.2468564,1.870393563,26.47377496,464.2897109,16.4755496,10.09351164,106.2860141,158.2343063,0.148259694,0.109265665,0.054783492
7/3/2018,Arnold,ARN180703,1,1,1,0,0,0,22.27987901,37447.11512,84.94214876,15.19294714,293.7966382,1.899867358,18.97947686,365.7407016,14.74710777,7.018073842,88.4607776,150.6875034,0.238673547,-0.109286392,0.07117891
7/9/2018,Arnold,ARN180709,1,1,1,0,0,0,22.51049493,34437.43033,107,24.81586788,96.06275117,1.685812284,26.62188675,446.7370406,30.31180554,92.41521372,73.22175062,173.5744933,0.093048577,0.146406765,-0.080064291
7/11/2018,Arnold,ARN180711,1,1,1,0,0,0,22.5746434,38759.20903,106.3719008,12.63127037,174.2376338,1.421982557,29.97105258,554.4243058,12.94105333,9.793198812,86.58357478,127.1979058,-0.006946689,-0.035501945,0.074470198
7/17/2018,Arnold,ARN180717,1,1,1,0,0,0,22.61000818,38887.34856,100.0909091,12.64330725,190.8392884,1.240214481,31.61685185,581.6281383,11.81186159,6.174156049,81.6259055,119.7713522,-0.018836783,-0.051494461,0.092657696
7/18/2018,Arnold,ARN180717,1,1,1,0,0,0,22.61000818,38887.34856,100.0909091,12.64330725,190.8392884,1.240214481,31.61685185,581.6281383,11.81186159,6.174156049,81.6259055,119.7713522,-0.018836783,-0.051494461,0.092657696
7/23/2018,Arnold,ARN180723,1,1,0,0,0,0,22.5431383,34255.55407,107,25.23443301,197.3913781,1.261341074,29.19973295,444.2236033,27.8348141,54.95027615,83.63376747,156.0423415,-0.076057142,0.145402809,0.048270617
7/25/2018,Arnold,ARN180725,1,1,0,0,0,0,22.2961524,36912.45989,107,18.96013602,197.34935,1.761131354,26.9167661,425.1596839,28.14301645,75.58194119,71.03362876,154.9713417,0.022119341,0.214894891,-0.052044045
7/27/2018,Arnold,ARN180727,1,1,0,0,0,0,21.71790585,38272.39703,105.2231405,15.58337462,146.9494231,1.129358587,26.67412919,427.8221065,30.51634162,89.86813386,50.84838873,141.8899675,0.072581173,0.226646014,-0.067269193
7/30/2018,Arnold,ARN180730,1,1,1,0,0,0,21.73734056,38381.37752,102.3801653,16.23888171,148.3986066,1.060408035,26.68431868,436.7345604,29.81237633,87.62405169,51.85658086,137.3793668,0.053924962,0.205344469,-0.052125601
8/1/2018,Arnold,ARN180801,1,1,0,0,0,0,22.66215767,39691.00613,107,13.77339118,75.66014916,0.898849697,26.40958814,430.6204188,22.09006451,32.90865259,128.9577914,154.748685,-0.227943536,-0.016406282,-0.027152841
8/6/2018,Arnold,ARN180806,1,1,1,0,0,0,22.21298705,37276.06631,151,21.48181487,159.1272713,1.375976254,23.45651582,399.5119493,25.07090779,47.227233,85.7761472,152.2174661,-0.108926011,0.200500879,-0.053486496
8/8/2018,Arnold,ARN180808,1,1,1,0,0,0,21.9435168,34904.04195,107,24.88150593,35.86085225,1.402371127,25.73272034,388.0853312,29.52413671,70.84682991,68.40900008,158.7763143,0.089389924,0.316942439,-0.062590016
8/10/2018,Arnold,ARN180808,1,1,1,0,0,0,21.9435168,34904.04195,107,24.88150593,35.86085225,1.402371127,25.73272034,388.0853312,29.52413671,70.84682991,68.40900008,158.7763143,0.089389924,0.316942439,-0.062590016
8/13/2018,Arnold,ARN180813,1,1,1,0,0,0,21.99629177,38923.76646,107,19.50319122,81.7938729,0.681083354,24.63814696,376.5367568,26.19118569,63.09897115,64.83150003,159.4937982,-0.010542025,0.195584957,-0.059379736
8/15/2018,Arnold,ARN180815,1,1,0,0,1,0,22.19888102,39600.98215,111,17.69258455,77.99200654,0.742547367,25.06221642,377.2577459,26.37137008,62.23220545,73.15323623,159.6849389,-0.055884713,0.16874107,-0.081202238
8/20/2018,Arnold,ARN180820,1,1,0,0,1,0,22.44959806,38702.30627,35,15.85161848,109.2566146,1.12892089,25.03837143,430.6484753,15.39658328,0.226433455,122.4346892,189.0464532,-0.084055777,0.023208472,0.027652068
8/22/2018,Arnold,ARN180820,1,1,1,0,0,0,22.44959806,38702.30627,35,15.85161848,109.2566146,1.12892089,25.03837143,430.6484753,15.39658328,0.226433455,122.4346892,189.0464532,-0.084055777,0.023208472,0.027652068
8/29/2018,Arnold,ARN180829,1,1,1,0,0,0,22.46254374,38188.77376,35,15.84224121,98.70967499,1.764151831,27.62303967,440.0701587,12.84024177,0,117.8927455,163.7589265,-0.02318969,0.030374805,-0.038876683
8/31/2018,Arnold,ARN180829,1,1,1,0,0,0,22.46254374,38188.77376,35,15.84224121,98.70967499,1.764151831,27.62303967,440.0701587,12.84024177,0,117.8927455,163.7589265,-0.02318969,0.030374805,-0.038876683
9/4/2018,Arnold,ARN180904,1,1,1,0,0,0,22.48280182,35338.72133,151,24.46068073,324.7724672,1.569119626,25.86107952,375.0272456,29.91042901,62.35937215,55.07858324,145.5334267,0.070867098,0.194975066,0.02156215
9/7/2018,Arnold,ARN180907,1,1,1,0,0,0,22.5601446,38763.73434,151,18.26133808,349.3935385,1.343545341,26.0360446,392.4138527,21.34486793,38.20289846,64.05930139,145.4710464,0.025301784,0.146082535,-0.028368784
9/12/2018,Arnold,ARN180912,1,1,1,0,0,0,22.39347636,35472.68332,151,22.60304365,307.7383698,1.536128863,28.40961641,399.0322309,29.86022472,76.76174217,47.96979586,145.5802446,0.056753513,0.209675978,0.014786816
9/14/2018,Arnold,ARN180914,1,1,1,0,0,0,22.43070032,38644.64256,151,20.04214935,319.9303823,1.155872939,26.26495423,395.8419293,24.11434035,62.91584437,55.69948862,142.7379748,0.085076723,0.170597869,5.94E-05
9/19/2018,Arnold,ARN180919,1,1,1,0,0,0,22.5601446,38763.73434,151,18.26133808,349.3935385,1.343545341,26.0360446,392.4138527,21.34486793,38.20289846,64.05930139,145.4710464,0.025301784,0.146082535,-0.028368784
9/21/2018,Arnold,ARN180921,1,1,1,0,0,0,22.55203395,38869.3995,151,18.29995436,344.4546658,1.261949203,24.9161691,370.5432056,22.29156166,42.38451742,62.05935395,144.8261409,0.054854254,0.127539104,-0.015151197
9/26/2018,Arnold,ARN180926,1,1,1,0,0,0,22.40465131,37925.17462,151,19.29315362,328.3711154,1.471424296,24.37631141,379.9477162,24.96092785,52.78555905,62.73366695,148.1338565,0.05526419,0.078264828,0.004016344
9/28/2018,Arnold,ARN180928,1,1,0,0,0,0,22.30864848,37741.62897,151,20.40278702,333.3873601,1.281453376,25.40633526,381.2095554,25.40477741,47.9137487,67.12218936,151.6855179,0.019450731,0.099791979,-0.002306933
10/1/2018,Arnold,ARN181001,1,1,0,0,0,0,22.78626554,39787.28487,151,14.25530303,278.2042858,0.325787443,25.53351248,490.5962999,20.04810567,18.66813998,101.9739309,167.5425739,-0.385984113,-0.069880516,-0.008992574
10/3/2018,Arnold,ARN181001,1,1,1,0,0,0,22.78626554,39787.28487,151,14.25530303,278.2042858,0.325787443,25.53351248,490.5962999,20.04810567,18.66813998,101.9739309,167.5425739,-0.385984113,-0.069880516,-0.008992574
10/9/2018,Arnold,ARN181009,1,1,1,0,0,0,22.44732625,39341.99183,145.7355372,16.76690216,253.7717935,0.235931709,21.74783525,502.8329251,23.18094629,15.59639845,112.8399246,170.9279716,-0.371208709,-0.046361733,0.00363533
10/11/2018,Arnold,ARN181011,1,1,0,0,0,0,22.25277819,38342.79923,137.4628099,20.23787145,182.7785331,0.564126402,24.76907604,411.6854896,23.97078048,35.39948621,85.64745892,160.3929945,-0.168745997,0.118257508,0.03328953
10/15/2018,Arnold,ARN181011,1,1,0,0,0,0,22.25277819,38342.79923,137.4628099,20.23787145,182.7785331,0.564126402,24.76907604,411.6854896,23.97078048,35.39948621,85.64745892,160.3929945,-0.168745997,0.118257508,0.03328953
10/17/2018,Arnold,ARN181011,1,1,0,0,0,0,22.25277819,38342.79923,137.4628099,20.23787145,182.7785331,0.564126402,24.76907604,411.6854896,23.97078048,35.39948621,85.64745892,160.3929945,-0.168745997,0.118257508,0.03328953
10/22/2018,Arnold,ARN170904,1,1,0,0,0,0,22.47605552,39570.36144,113.3966942,17.84931472,217.6317256,0.294300947,24.05367035,462.6688205,21.28065856,18.60473588,106.9881919,164.9715876,-0.40949543,-0.05138897,0.005955091
10/24/2018,Arnold,ARN170904,1,1,0,0,0,0,22.47605552,39570.36144,113.3966942,17.84931472,217.6317256,0.294300947,24.05367035,462.6688205,21.28065856,18.60473588,106.9881919,164.9715876,-0.40949543,-0.05138897,0.005955091
10/26/2018,Arnold,ARN170904,1,1,0,0,0,0,22.47605552,39570.36144,113.3966942,17.84931472,217.6317256,0.294300947,24.05367035,462.6688205,21.28065856,18.60473588,106.9881919,164.9715876,-0.40949543,-0.05138897,0.005955091
10/29/2018,Arnold,ARN170904,1,1,0,0,0,0,22.47605552,39570.36144,113.3966942,17.84931472,217.6317256,0.294300947,24.05367035,462.6688205,21.28065856,18.60473588,106.9881919,164.9715876,-0.40949543,-0.05138897,0.005955091
5/3/2019,Arnold,ARN190503,1,1,0,0,0,0,22.8099646,39641.87626,142.7272727,15.92167506,261.0558586,0.752985822,26.22714282,458.8663393,21.90985446,20.87287376,109.0908004,164.3976172,-0.345277999,-0.056041706,-0.058971718
5/9/2019,Arnold,ARN190509,1,1,0,0,0,0,22.52541016,39804.65215,147.9917355,18.47512583,221.7888814,0.59739923,26.25862971,424.6766695,23.50980162,31.18581836,93.49669565,161.8849664,-0.293167886,0.036980921,-0.014367965
5/13/2019,Arnold,ARN190513,1,1,0,0,0,0,22.47580618,38074.77244,39.79338843,11.67682258,123.3435476,1.662711708,23.76979904,445.9995422,13.09680372,0.002592055,107.3922105,168.1067053,0.160643934,-0.053009155,0.084654733
5/20/2019,Arnold,ARN190520,1,1,0,0,0,0,22.64758134,40025.9119,35,7.408570577,106.1210038,1.002136855,21.22643822,438.5448593,12.81336506,0.000241123,144.5320977,195.4182245,-0.010227935,-0.043542119,-0.016982189
5/22/2019,Arnold,ARN190522,1,1,0,0,0,0,22.71083296,40378.22953,35,11.3103108,91.26097529,0.623692875,22.89519069,486.2317316,11.83208644,0,142.9840141,192.7841073,-0.084982475,-0.074112714,0.007298771
5/24/2019,Arnold,ARN190524,1,1,0,0,0,0,22.3993829,38881.54688,35,18.97219525,63.15173512,0.214628324,18.76842677,563.9918331,11.99949835,0.144401118,136.0725758,193.2014984,-0.199962367,-0.164630062,0.031784012
6/5/2019,Arnold,ARN190529,1,1,0,0,0,0,22.22273377,36882.40656,35,21.02718545,59.21444371,1.765692003,22.46212345,429.0660004,14.75516705,0.023296213,154.9737231,189.9371953,0.130444058,0.076096919,-0.078612725
6/17/2019,Arnold,ARN190617,1,1,1,0,0,0,21.89847744,38888.26098,39.16528926,20.49985301,24.89946382,0.202232462,17.86242234,502.6470559,13.99916141,9.214850672,108.7265187,171.9021036,0.040297326,-0.008738712,-0.125489826
6/19/2019,Arnold,ARN190619,1,1,1,0,0,0,21.83296538,38834.14821,44.52066116,20.51138234,22.83861049,0.267728747,19.71727753,447.5865274,15.47940526,16.49365731,87.54083939,169.7630044,-0.049515951,-0.031175624,-0.076492378
6/25/2019,Arnold,ARN190625,1,1,0,0,0,0,22.57160262,40522.39489,35,13.0928861,81.91442606,0.120535514,23.39554175,558.3935123,12.99803211,0.079720664,124.1954126,181.0869426,-0.412082841,-0.1099748,0.07417658
6/27/2019,Arnold,ARN190627,1,1,0,0,0,0,21.8844474,38365.18902,78.43801653,19.20803668,20.86517778,0.401353686,21.07331284,441.2860574,19.98014404,30.22310623,91.01407894,168.0788565,-0.074338798,0.063803592,-0.071747804
7/5/2019,Arnold,ARN190705,1,1,0,0,1,0,22.29690192,40443.14866,64,12.31208594,169.2185552,0.799323509,30.56850963,462.4512001,20.8475929,12.54473189,91.91462499,145.0956966,-0.05266108,-0.021814841,0.01820142